Regional Weather Roundup
Issued by NWS

Home | Current Version | Previous Version | Text Only | Print | Product List | Glossary On
Versions: 1 2 3 4 5 6 7 8 9 10 11 12 13 14 15 16 17 18 19 20 21 22 23 24 25 26 27 28 29 30 31 32 33 34 35 36 37 38 39 40 41 42 43 44 45 46 47 48 49 50
000
ASUS43 KLSX 030907
RWRMO

WEATHER SUMMARY FOR MISSOURI
NATIONAL WEATHER SERVICE SPRINGFIELD MO
400 AM CDT MON AUG 03 2015

NOTE: "FAIR" INDICATES FEW OR NO CLOUDS BELOW 12,000 FEET WITH NO
       SIGNIFICANT WEATHER AND/OR OBSTRUCTIONS TO VISIBILITY.
       CURRENT SKY AND/OR WEATHER CONDITIONS ARE NOT AVAILABLE FOR
       CHILLICOTHE AND FARMINGTON.

MOZ001>031-035>038-043-044-053-054-031000-
...NORTHERN AND WESTERN MISSOURI...

CITY           SKY/WX    TMP DP  RH WIND       PRES   REMARKS
KANSAS CTY INT PTCLDY    74  65  73 SE6       29.91F
KANSAS C DTWN  CLEAR     75  67  76 NE5       29.90S
LEE`S SUMMIT   PTCLDY    73  67  81 NE7       29.92S
ST JOSEPH      PTCLDY    71  64  78 E7        29.92R
CHILLICOTHE      N/A     77  62  59 N7G16     29.86F
KIRKSVILLE     MOCLDY    68  60  75 N7        29.88R

$$
MOZ066>068-077>081-088>096-101>105-031000-
...SOUTHWEST MISSOURI...

CITY           SKY/WX    TMP DP  RH WIND       PRES   REMARKS
SPRINGFIELD    CLEAR     69  63  81 CALM      29.93F
JOPLIN         PTCLDY    70  66  87 CALM      29.95R

$$
MOZ032>034-039>042-045>050-055>058-069>072-031000-
...CENTRAL MISSOURI...

CITY           SKY/WX    TMP DP  RH WIND       PRES   REMARKS
COLUMBIA       CLOUDY    72  64  76 SW3       29.86R
JEFFERSON CITY CLOUDY    76  63  64 NW5       29.85R
ROLLA          MOCLDY    69  66  90 SW9       29.86F
SEDALIA        PTCLDY    73  64  73 SW7       29.90F
WHITEMAN AFB   CLEAR     72  65  80 W1        29.90S
WARRENSBURG    PTCLDY    70  64  83 CALM      29.91R
OSAGE BEACH    PTCLDY    75  64  69 NW5       29.89R

$$
MOZ051-052-059>065-031000-
...EAST CENTRAL MISSOURI...

CITY           SKY/WX    TMP DP  RH WIND       PRES   REMARKS
ST LOUIS INTL  CLOUDY    81  66  60 W12       29.83S
SPIRIT OF STL  CLOUDY    75  68  78 SW5       29.83R
ST CHARLES     CLOUDY    76  68  76 SW3       29.83R

$$
MOZ072>076-082>087-097>100-106>115-031000-
...SOUTH CENTRAL AND SOUTHEAST MISSOURI...

CITY           SKY/WX    TMP DP  RH WIND       PRES   REMARKS
CAPE GIRARDEAU CLEAR     75  71  87 SW7       29.87S
FARMINGTON     PTCLDY    73  66  78 CALM      29.93R
POPLAR BLUFF   CLEAR     74  70  87 SW3       29.88R
WEST PLAINS    CLEAR     71  67  87 CALM      29.95S

$$



USA.gov is the U.S. government's official web portal to all federal, state and local government web resources and services.